IRIDIUM 131 (43079 NORAD) Tracking and Keplerian Element Data

This shows tracking and keplerian element data for the satellite.

Feedback or suggestion? Click here.




ElementValue
Catalog43079
NameIRIDIUM 131
Epoch Orbit13775
Epoch Day222.83105058
Epoch Year2020
RAAN135.3121
Inclination86.4003
Eccentricity0.0002168
Argument of Perigee89.8221
Mean Anonmoly270.3223
Mean Motion14.34219555
Decay Rate7.4E-07
L11 43079U 17083K 20222.83105058 .00000074 00000-0 19184-4 0 9998
L22 43079 86.4003 135.3121 0002168 89.8221 270.3223 14.34219555137750

Live tracking and technical data element details for IRIDIUM 131 (NORAD 43079). IRIDIUM 131 can be tracked NOW for your location showing map with azimuth and elevation plus other details from your city location.

Track the satellite on the map from your city or location and see movement details for azimuth, elevation, latitude, longitude, range, height, and movement on the map or in text.







IsCatalogInMostPopularTable: catalog: 43079, numindb: 483
Update: records affected: 1



GetName: 43079 IRIDIUM 131

Hit Count: updated at: Mon, 10 Aug 2020 21:27:29 GMT